Location: Kawakawa
(35.3830°S, 174.0670°E)
Time: 10:02:35
(UTC+13:00)

Explorer 7 - Pass Details

Date: 19 December 2019
Orbit: 485 x 679 km, 50.3° (Epoch: 24 January)

Event Time Altitude Azimuth Distance (km) Brightness Sun altitude
Rises 01:54:14 0° 303° (WNW) 2,740 - -30.7°
Reaches altitude 10° 01:56:33 10° 300° (WNW) 1,817 - -30.6°
Maximum altitude 02:00:38 63° 218° (SW) 595 - -30.5°
Exits shadow 02:03:05 22° 142° (SE) 1,182 9.0 -30.4°
Drops below altitude 10° 02:04:32 10° 136° (SE) 1,739 10.0 -30.3°
Sets 02:06:43 0° 132° (SE) 2,610 11.0 -30.2°
